User: anonymous   Login
Location: Kuffner-Sternwarte
(48.2130°N, 16.2960°E)
Time: 00:58:41
(UTC+02:00)
Language:

XW-2D - Orbit

View from above orbital plane
View from above orbital plane
View from above satellite
View from above satellite

Ground track
Ground track

The orbit data is extracted from the following two-line orbital elements,

1 40907U 15049J   19168.90959160  .00000508  00000-0  29985-4 0  9993
2 40907  97.4643 170.6791 0013708 192.2974 204.9060 15.15853964206892
Epoch (UTC): 17 June 2019 21:49:48
Eccentricity: 0.0013708
inclination: 97.4643°
perigee height: 509 km
apogee height: 528 km
right ascension of ascending node: 170.6791°
argument of perigee: 192.2974°
revolutions per day: 15.15853964
mean anomaly at epoch: 204.9060°
orbit number at epoch: 20689

The dashed part of the orbit path shows where the satellite is in the earth's shadow,  

DLR